Voltar ao catálogo

COSMOS 1082

AtivoNavegaçãoLEO
NORAD 11297·PAYLOAD·🇷🇺 Russia

Lançado Mar 15, 1979 de Plesetsk Cosmodrome

Loading…

Próximas Passagens (próximas 24 horas)

TLE

AtualizadoSource: Space-Track

Época: Sep 14, 2026, 07:25 UTC

1 11297U 79024B   26257.30947444 -.00000011  00000-0  31774-4 0  9998
2 11297  74.0382   7.1532 0026370  57.0770 332.5302 12.54965730775951

Acompanhe COSMOS 1082 em tempo real com AllMySat

Download on the App Store